Date String (YYYY-MM-DD hh:mm:ss) UTC,Instrument flags,Ambient pressure (hPa),Sample flow (lpm),Bypass flow (lpm),Sample temperature (°C),Ambient temperature (°C),ASC tube jacket temperature (°C),LED temperature (°C),Box temperature (°C),Sample RH (%),Span deviation,Mass concentration (μg/m³),Mass concentration (μg/m³),Mass concentration (μg/m³)
DateTimeUTC,F1_M11,P_M11,Q1_M11,Q2_M11,T1_M11,T2_M11,T3_M11,T4_M11,T5_M11,U1_M11,ZSPAN_M11,X2_M11,X0_M11,X1_M11
2023-05-03 23:00:00,,0825.1,5.00,0.00,30.1,29.0,00.0,38.3,31.8,09.6,0000.0,0004.87,0012.36,0003.40
2023-05-03 23:01:00,,0825.1,4.99,0.00,30.2,28.9,00.0,38.3,31.8,09.5,0000.0,0004.86,0012.01,0003.39
2023-05-03 23:02:00,,0825.1,4.98,0.00,30.1,27.2,00.0,38.3,31.6,09.5,0000.0,0004.82,0011.68,0003.38
2023-05-03 23:03:00,,0825.0,5.02,0.00,30.0,25.7,00.0,38.2,31.3,09.7,0000.0,0004.87,0012.45,0003.40
2023-05-03 23:04:00,,0825.0,5.00,0.00,30.0,25.6,00.0,38.1,31.2,09.5,0000.0,0004.95,0013.48,0003.41
2023-05-03 23:05:00,,0825.0,4.99,0.00,29.9,25.9,00.0,38.1,31.1,09.6,0000.0,0004.94,0013.27,0003.40
2023-05-03 23:06:00,,0825.0,4.99,0.00,29.8,26.3,00.0,38.2,31.2,09.7,0000.0,0004.91,0012.85,0003.40
2023-05-03 23:07:00,,0825.0,5.02,0.00,29.8,26.8,00.0,38.2,31.2,09.5,0000.0,0004.93,0012.83,0003.39
2023-05-03 23:08:00,,0825.0,5.01,0.00,29.8,27.1,00.0,38.2,31.3,09.5,0000.0,0004.93,0012.68,0003.40
2023-05-03 23:09:00,,0825.0,4.98,0.00,29.8,27.5,00.0,38.2,31.4,09.5,0000.0,0004.92,0012.50,0003.40
2023-05-03 23:10:00,,0825.0,5.00,0.00,29.8,27.8,00.0,38.2,31.4,09.7,0000.0,0004.91,0012.34,0003.40
2023-05-03 23:11:00,,0825.0,5.01,0.00,29.9,28.1,00.0,38.2,31.5,10.2,0000.0,0004.88,0012.30,0003.40
2023-05-03 23:12:00,,0824.9,5.00,0.00,29.9,28.3,00.0,38.2,31.5,09.8,0000.0,0004.88,0012.91,0003.40
2023-05-03 23:13:00,,0824.9,4.99,0.00,29.9,28.5,00.0,38.2,31.6,09.8,0000.0,0004.91,0012.96,0003.41
2023-05-03 23:14:00,,0825.0,5.00,0.00,30.0,28.6,00.0,38.2,31.6,09.5,0000.0,0004.95,0012.60,0003.42
2023-05-03 23:15:00,,0825.0,5.00,0.00,30.0,28.8,00.0,38.3,31.7,09.5,0000.0,0004.92,0011.77,0003.40
2023-05-03 23:16:00,,0824.9,5.01,0.00,30.0,28.9,00.0,38.3,31.7,09.6,0000.0,0004.91,0011.70,0003.39
2023-05-03 23:17:00,,0824.9,5.00,0.00,30.1,29.0,00.0,38.3,31.8,09.5,0000.0,0004.93,0012.17,0003.40
2023-05-03 23:18:00,,0825.0,5.00,0.00,30.1,29.1,00.0,38.3,31.8,09.8,0000.0,0005.00,0013.00,0003.40
2023-05-03 23:19:00,,0824.9,4.99,0.00,30.2,29.0,00.0,38.3,31.9,09.8,0000.0,0005.01,0013.17,0003.40
2023-05-03 23:20:00,,0824.9,4.98,0.00,30.2,27.5,00.0,38.3,31.7,09.8,0000.0,0005.04,0013.23,0003.39
2023-05-03 23:21:00,,0824.9,5.00,0.00,30.1,25.8,00.0,38.2,31.3,09.5,0000.0,0005.09,0013.34,0003.39
2023-05-03 23:22:00,,0824.9,5.00,0.00,30.0,25.6,00.0,38.1,31.3,09.3,0000.0,0005.17,0013.84,0003.39
2023-05-03 23:23:00,,0824.9,5.01,0.00,29.9,25.9,00.0,38.2,31.2,09.5,0000.0,0005.17,0014.35,0003.39
2023-05-03 23:24:00,,0824.9,5.00,0.00,29.8,26.3,00.0,38.2,31.2,09.6,0000.0,0005.21,0015.17,0003.39
2023-05-03 23:25:00,,0824.9,5.00,0.00,29.8,26.7,00.0,38.2,31.2,10.0,0000.0,0005.19,0015.11,0003.38
2023-05-03 23:26:00,,0824.9,5.00,0.00,29.8,27.1,00.0,38.2,31.3,09.8,0000.0,0005.17,0015.07,0003.38
2023-05-03 23:27:00,,0824.9,5.00,0.00,29.8,27.5,00.0,38.2,31.4,09.5,0000.0,0005.24,0015.39,0003.39
2023-05-03 23:28:00,,0824.9,4.99,0.00,29.9,27.8,00.0,38.2,31.4,09.7,0000.0,0005.27,0015.40,0003.39
2023-05-03 23:29:00,,0825.0,4.99,0.00,29.9,28.0,00.0,38.2,31.5,10.1,0000.0,0005.20,0014.99,0003.38
2023-05-03 23:30:00,,0824.9,4.99,0.00,29.9,28.2,00.0,38.2,31.5,10.1,0000.0,0005.18,0014.71,0003.38
2023-05-03 23:31:00,,0824.9,5.00,0.00,29.9,28.4,00.0,38.2,31.6,10.3,0000.0,0005.19,0014.55,0003.38
2023-05-03 23:32:00,,0824.9,5.00,0.00,30.0,28.6,00.0,38.2,31.7,10.2,0000.0,0005.23,0015.16,0003.39
2023-05-03 23:33:00,,0824.9,5.00,0.00,30.0,28.7,00.0,38.3,31.7,10.0,0000.0,0005.19,0015.60,0003.38
2023-05-03 23:34:00,,0824.9,5.00,0.00,30.1,28.8,00.0,38.3,31.8,10.3,0000.0,0005.19,0015.54,0003.37
2023-05-03 23:35:00,,0825.0,5.00,0.00,30.1,28.9,00.0,38.3,31.8,10.4,0000.0,0005.17,0014.70,0003.36
2023-05-03 23:36:00,,0825.0,5.00,0.00,30.1,29.0,00.0,38.4,31.9,09.9,0000.0,0005.11,0015.15,0003.35
2023-05-03 23:37:00,,0824.9,5.00,0.00,30.2,29.0,00.0,38.4,31.9,09.9,0000.0,0005.10,0015.80,0003.33
2023-05-03 23:38:00,,0824.9,4.98,0.00,30.2,27.7,00.0,38.3,31.7,10.0,0000.0,0005.06,0015.64,0003.32
2023-05-03 23:39:00,,0824.9,5.01,0.00,30.1,25.8,00.0,38.2,31.3,10.4,0000.0,0005.07,0016.43,0003.32
2023-05-03 23:40:00,,0824.9,5.00,0.00,30.0,25.4,00.0,38.1,31.2,10.5,0000.0,0005.16,0016.48,0003.32
2023-05-03 23:41:00,,0824.9,5.01,0.00,29.9,25.7,00.0,38.1,31.1,10.3,0000.0,0005.20,0016.93,0003.31
2023-05-03 23:42:00,,0824.9,4.99,0.00,29.8,26.1,00.0,38.2,31.1,10.2,0000.0,0005.22,0017.54,0003.30
2023-05-03 23:43:00,,0824.9,5.00,0.00,29.8,26.5,00.0,38.2,31.2,10.3,0000.0,0005.22,0017.39,0003.29
2023-05-03 23:44:00,,0824.9,5.00,0.00,29.8,27.0,00.0,38.2,31.2,10.4,0000.0,0005.25,0017.10,0003.29
2023-05-03 23:45:00,,0824.9,5.01,0.00,29.8,27.3,00.0,38.2,31.3,10.5,0000.0,0005.24,0016.80,0003.28
2023-05-03 23:46:00,,0824.9,5.00,0.00,29.8,27.6,00.0,38.2,31.4,10.6,0000.0,0005.21,0017.04,0003.28
2023-05-03 23:47:00,,0825.0,4.99,0.00,29.8,27.9,00.0,38.2,31.4,10.4,0000.0,0005.22,0016.73,0003.27
2023-05-03 23:48:00,,0824.9,5.00,0.00,29.8,28.1,00.0,38.2,31.5,10.1,0000.0,0005.24,0016.38,0003.28
2023-05-03 23:49:00,,0824.9,5.01,0.00,29.9,28.3,00.0,38.2,31.5,10.6,0000.0,0005.23,0017.21,0003.27
2023-05-03 23:50:00,,0824.9,5.00,0.00,29.9,28.4,00.0,38.2,31.6,10.5,0000.0,0005.18,0016.82,0003.25
2023-05-03 23:51:00,,0824.9,4.99,0.00,29.9,28.6,00.0,38.2,31.6,10.5,0000.0,0005.06,0016.75,0003.23
2023-05-03 23:52:00,,0824.9,5.00,0.00,30.0,28.7,00.0,38.2,31.6,10.5,0000.0,0005.03,0016.87,0003.22
2023-05-03 23:53:00,,0824.9,5.00,0.00,30.0,28.8,00.0,38.3,31.7,10.4,0000.0,0005.01,0016.59,0003.21
2023-05-03 23:54:00,,0824.9,5.00,0.00,30.0,28.9,00.0,38.3,31.7,10.8,0000.0,0005.00,0016.55,0003.20
2023-05-03 23:55:00,,0824.9,5.00,0.00,30.1,28.9,00.0,38.3,31.8,10.8,0000.0,0004.97,0016.89,0003.19
2023-05-03 23:56:00,,0824.9,5.01,0.00,30.1,29.0,00.0,38.3,31.8,10.4,0000.0,0005.02,0017.69,0003.18
2023-05-03 23:57:00,,0824.9,5.00,0.00,30.1,28.9,00.0,38.4,31.8,10.2,0000.0,0005.01,0018.08,0003.18
2023-05-03 23:58:00,,0824.9,4.99,0.00,30.1,27.2,00.0,38.3,31.6,10.0,0000.0,0005.05,0018.85,0003.18
2023-05-03 23:59:00,,0824.9,5.00,0.00,30.1,26.3,00.0,38.2,31.4,10.1,0000.0,0005.03,0018.58,0003.18
